User: anonymous   Login
Location: Ciudad Delicias
(28.2170°N, 105.4670°W)
Time: 00:39:09
(UTC-07:00)
Language:

ETS-7 - Orbit

View from above orbital plane
View from above orbital plane
View from above satellite
View from above satellite

Ground track
Ground track

The orbit data is extracted from the following two-line orbital elements,

1 25064U 97074B   15239.41137456  .00087527  00000-0  37706-3 0  9990
2 25064 034.9466 235.4865 0003710 254.7709 223.5280 15.83712378989439
Epoch (UTC): 27 August 2015 09:52:22
Eccentricity: 0.0003710
inclination: 34.9466°
perigee height: 317 km
apogee height: 322 km
right ascension of ascending node: 235.4865°
argument of perigee: 254.7709°
revolutions per day: 15.83712378
mean anomaly at epoch: 223.5280°
orbit number at epoch: 98943

The dashed part of the orbit path shows where the satellite is in the earth's shadow,  

DLR